CAPE
0 0 1 1 0 0 0 0 1 1 1 1 1 1 1 1 1 1 1 1 2 0 0 0 0 0 0 0 0 0 0 0 0 0 0 0 0 17 66 149 144 270 290 79 60 245 263
2 1 1 1 0 0 0 0 0 0 0 1 0 1 1 1 1 1 1 0 0 0 0 0 0 0 0 0 0 0 0 0 0 0 0 0 0 0 202 229 163 254 311 210 268 455 212
1 1 1 1 0 0 0 0 0 0 0 0 0 0 1 0 0 1 0 0 0 0 0 0 0 0 0 0 0 0 0 0 0 0 0 0 0 0 179 148 6 383 204 126 58 218 223
1 1 0 0 0 0 0 0 0 0 0 0 0 0 0 0 0 0 0 0 0 0 0 0 0 0 0 0 0 0 0 0 0 0 0 0 0 0 123 9 26 346 121 76 53 127 141
1 2 1 0 1 0 0 0 0 0 0 0 0 0 0 0 0 0 0 0 0 0 0 0 0 0 0 0 0 0 0 0 0 0 0 0 0 12 114 18 0 103 215 50 142 118 51
0 0 0 0 0 0 0 0 0 0 0 0 0 0 0 0 0 0 0 0 0 0 0 0 0 0 0 0 0 0 0 0 0 0 0 0 0 46 86 74 5 3 29 141 51 9 14
1 1 1 0 0 1 0 0 0 0 0 0 0 0 0 0 0 0 0 0 0 0 0 0 0 0 0 0 0 0 0 0 0 0 0 0 0 0 136 103 8 106 48 78 51 3 0
1 1 0 0 0 0 0 0 0 0 0 0 0 0 0 0 0 0 0 0 0 0 0 0 0 0 0 0 0 0 0 0 0 0 0 0 0 0 96 126 0 36 258 60 29 18 8
1 1 0 0 0 0 0 0 0 0 0 0 0 0 0 0 0 0 0 0 0 0 0 0 0 0 0 0 0 0 0 0 0 0 0 0 0 0 88 177 0 53 105 37 1 59 31
2 1 1 0 1 0 0 0 0 0 0 0 0 0 0 0 0 0 0 0 0 0 1 0 0 0 0 0 0 0 0 0 0 0 0 0 0 0 59 74 16 20 188 91 3 78 0
1 1 0 1 1 1 0 0 0 0 0 0 0 0 0 0 0 0 0 0 0 0 2 0 0 0 0 0 0 0 0 0 0 0 0 0 0 0 0 17 2 15 11 7 58 123 6
1 0 1 0 1 1 1 0 0 0 0 0 0 0 0 0 0 0 0 0 0 0 22 0 0 0 0 0 0 0 0 0 0 0 0 0 0 0 0 1 8 4 48 114 144 81 30
1 1 1 0 1 1 1 0 0 0 0 0 0 0 0 0 0 0 0 0 0 20 0 0 0 0 0 0 1 0 0 0 0 0 0 0 0 0 0 1 0 60 165 100 23 16 47
1 1 0 0 1 1 0 0 0 0 0 0 0 0 0 0 0 0 0 0 25 1 18 0 0 0 7 0 8 2 0 0 0 0 0 0 0 0 0 18 4 7 56 135 65 104 78
1 1 0 1 0 0 0 0 0 0 0 0 0 0 0 0 0 0 0 25 31 36 6 11 0 33 19 0 7 6 14 3 9 0 4 1 0 0 0 0 6 2 20 60 110 0 17
1 1 0 0 0 0 0 0 0 0 0 0 0 0 0 0 0 0 4 0 0 0 2 0 10 8 19 16 0 0 30 17 24 2 5 29 14 0 0 0 0 0 7 16 4 6 21
1 0 0 0 0 0 0 0 0 0 0 0 0 2 0 0 0 5 20 2 0 0 0 23 11 21 43 10 0 17 4 9 1 5 0 7 7 0 0 0 0 0 0 0 19 5 7
1 0 0 0 0 0 0 0 0 0 0 0 0 13 0 0 8 18 12 0 0 0 0 0 1 11 22 11 45 12 0 32 0 0 6 0 20 13 11 0 0 0 0 0 0 0 2
0 0 1 0 0 0 0 0 0 0 0 0 2 0 0 0 27 6 0 0 1 6 0 0 4 0 0 45 16 16 30 24 12 0 27 59 1 29 31 11 0 0 0 0 0 0 15
1 0 0 0 0 0 0 0 0 0 0 0 0 2 0 0 0 6 10 6 0 0 0 0 0 0 0 35 40 69 25 14 12 13 0 1 21 19 5 5 0 1 0 0 1 12 2
0 0 1 1 0 0 0 0 0 0 0 0 0 5 1 5 0 0 0 0 0 0 0 0 1 0 0 68 104 130 21 31 4 34 21 0 18 31 11 0 0 1 5 0 0 0 15
0 0 1 1 1 0 0 0 0 0 0 0 11 0 0 0 0 0 0 0 0 0 0 0 0 0 0 66 178 130 58 51 106 106 14 43 27 35 20 1 0 3 16 15 20 3 2
0 0 0 0 2 0 0 0 0 0 0 0 0 0 0 0 0 0 0 0 0 0 0 0 0 0 0 14 4 27 20 42 83 124 99 84 61 49 28 19 22 2 14 26 8 9 21
0 1 0 0 1 0 0 0 0 0 0 0 0 0 0 0 0 0 0 0 0 0 0 0 0 0 2 0 0 0 50 59 50 38 66 114 64 71 65 32 30 89 50 68 38 51 62
0 0 1 1 0 2 0 0 0 0 0 0 0 2 0 1 0 0 0 0 0 0 0 0 0 0 0 0 2 120 97 57 86 80 45 76 191 117 94 41 3 9 94 101 54 174 322
0 0 1 2 0 2 0 0 0 0 0 0 0 0 13 0 0 0 0 0 0 3 0 0 0 0 0 1 44 308 198 37 86 36 65 88 59 266 219 162 52 73 4 9 35 48 113
0 0 0 0 0 1 1 0 0 0 0 0 0 2 33 0 0 0 0 0 0 0 0 0 0 0 0 105 153 100 160 79 40 275 257 61 107 109 136 99 127 36 4 0 42 154 127
0 0 0 0 0 0 1 0 0 0 0 0 3 0 99 3 0 0 0 0 0 0 1 84 0 25 0 0 82 178 106 221 119 66 162 0 0 233 177 60 0 108 167 220 252 227 185
0 0 0 0 0 0 1 0 0 0 0 0 0 0 0 79 4 0 0 0 0 0 0 0 0 86 0 39 59 92 193 48 84 0 176 0 312 182 23 133 337 297 337 403 293 246 258
CIN
-0 -3 -3 -0 -0 -0 -0 -0 -0 -0 -0 -0 -0 -0 -1 -0 -0 -0 -0 -0 -0 -0 -0 -0 -0 -0 -0 -0 -0 -0 -0 -0 -0 -0 -0 -0 -0 -13 -7 -1 -1 -1 -0 -33 -46 -51 -11
-1 -2 -2 -1 -0 -0 -0 -0 -0 -0 -0 -0 -0 -0 -0 -0 -0 -0 -0 -0 -0 -0 -0 -0 -0 -0 -0 -0 -0 -0 -0 -0 -0 -0 -0 -0 -0 -0 -9 -7 -3 -2 -1 -16 -17 -1 -3
-2 -3 -2 -1 -0 -0 -0 -0 -0 -0 -0 -0 -0 -0 -0 -0 -0 -0 -0 -0 -0 -0 -0 -0 -0 -0 -0 -0 -0 -0 -0 -0 -0 -0 -0 -0 -0 -0 -3 -3 -2 -3 -1 -4 -49 -24 -19
-2 -2 -1 -2 -0 -0 -0 -0 -0 -0 -0 -0 -0 -0 -0 -0 -0 -0 -0 -0 -0 -0 -0 -0 -0 -0 -0 -0 -0 -0 -0 -0 -0 -0 -0 -0 -0 -0 -3 -4 -38 -2 -2 -1 -44 -25 -19
-5 -4 -3 -2 -0 -0 -0 -0 -0 -0 -0 -0 -0 -0 -0 -0 -0 -0 -0 -0 -0 -0 -0 -0 -0 -0 -0 -0 -0 -0 -0 -0 -0 -0 -0 -0 -0 -103 -2 -18 -0 -26 -0 -2 -1 -8 -33
-8 -0 -0 -0 -0 -0 -0 -0 -0 -0 -0 -0 -0 -0 -0 -0 -0 -0 -0 -0 -0 -0 -0 -0 -0 -0 -0 -0 -0 -0 -0 -0 -0 -0 -0 -0 -0 -37 -20 -4 -1 -14 -13 -1 -17 -55 -41
-0 -0 -0 -0 -0 -0 -0 -0 -0 -0 -0 -0 -0 -0 -0 -0 -0 -0 -0 -0 -0 -0 -0 -0 -0 -0 -0 -0 -0 -0 -0 -0 -0 -0 -0 -0 -0 -0 -1 -4 -56 -78 -2 -25 -5 -0 -0
-1 -0 -1 -2 -1 -0 -0 -0 -0 -0 -0 -0 -0 -0 -0 -0 -0 -0 -0 -0 -0 -0 -0 -0 -0 -0 -0 -0 -0 -0 -0 -0 -0 -0 -0 -0 -0 -0 -4 -16 -0 -2 -10 -46 -14 -33 -10
-0 -0 -0 -1 -0 -0 -0 -0 -0 -0 -0 -0 -0 -0 -0 -0 -0 -0 -0 -0 -0 -0 -0 -0 -0 -0 -0 -0 -0 -0 -0 -0 -0 -0 -0 -0 -0 -0 -3 -8 -11 -3 -22 -22 -19 -2 -4
-1 -0 -1 -1 -0 -0 -0 -0 -0 -0 -0 -0 -0 -0 -0 -0 -0 -0 -0 -0 -0 -0 -17 -0 -0 -0 -0 -0 -0 -0 -0 -0 -0 -0 -0 -0 -0 -0 -2 -2 -5 -8 -27 -27 -28 -1 -0
-2 -1 -0 -0 -0 -0 -0 -0 -0 -0 -0 -0 -0 -0 -0 -0 -0 -0 -0 -0 -0 -0 -13 -0 -0 -0 -0 -0 -0 -0 -0 -0 -0 -0 -0 -0 -0 -0 -0 -7 -1 -20 -3 -4 -14 -7 -35
-0 -1 -0 -1 -0 -0 -0 -0 -0 -0 -0 -0 -0 -0 -0 -0 -0 -0 -0 -0 -0 -0 -10 -0 -0 -0 -0 -0 -0 -0 -0 -0 -0 -0 -0 -0 -0 -0 -0 -1 -6 -0 -10 -5 -17 -7 -5
-0 -0 -0 -0 -0 -0 -0 -0 -0 -0 -0 -0 -0 -0 -0 -0 -0 -0 -0 -0 -0 -14 -0 -0 -0 -0 -0 -0 -1 -0 -0 -0 -0 -0 -0 -0 -0 -0 -0 -1 -0 -3 -2 -3 -6 -5 -2
-0 -0 -0 -2 -2 -0 -0 -0 -0 -0 -0 -0 -0 -0 -0 -0 -0 -0 -0 -0 -3 -1 -2 -0 -0 -0 -6 -0 -6 -3 -0 -0 -0 -1 -0 -0 -0 -0 -0 -3 -2 -3 -2 -4 -2 -2 -11
-0 -0 -2 -3 -0 -0 -0 -0 -0 -0 -0 -0 -0 -0 -0 -0 -0 -0 -0 -4 -7 -3 -2 -4 -0 -6 -5 -0 -1 -2 -3 -2 -5 -0 -11 -1 -0 -0 -0 -0 -3 -1 -3 -3 -3 -0 -41
-0 -1 -3 -0 -0 -0 -0 -0 -0 -0 -0 -0 -0 -0 -0 -0 -0 -0 -11 -0 -0 -0 -1 -0 -34 -25 -13 -10 -1 -0 -5 -7 -9 -3 -4 -8 -6 -0 -0 -0 -0 -0 -9 -4 -7 -6 -13
-0 -2 -0 -0 -0 -0 -0 -0 -0 -0 -0 -0 -0 -2 -0 -0 -0 -26 -5 -1 -2 -0 -0 -5 -3 -4 -5 -6 -16 -10 -37 -29 -6 -7 -0 -16 -6 -1 -0 -0 -0 -0 -0 -0 -5 -6 -11
-1 -1 -0 -0 -0 -0 -0 -0 -0 -0 -0 -0 -0 -6 -0 -0 -11 -2 -5 -6 -0 -0 -0 -0 -2 -5 -5 -8 -4 -5 -0 -11 -0 -0 -1 -0 -4 -8 -5 -0 -0 -0 -0 -0 -0 -1 -7
-0 -1 -1 -0 -0 -0 -0 -0 -0 -0 -0 -0 -1 -0 -0 -0 -6 -5 -0 -0 -2 -3 -0 -4 -2 -1 -0 -3 -3 -7 -4 -13 -24 -0 -6 -8 -0 -9 -9 -5 -0 -0 -0 -1 -0 -0 -7
-0 -1 -1 -0 -0 -0 -0 -0 -0 -0 -0 -0 -0 -4 -0 -0 -0 -4 -4 -1 -0 -0 -0 -0 -0 -0 -0 -3 -13 -5 -4 -5 -24 -4 -0 -2 -8 -7 -11 -21 -0 -5 -0 -1 -4 -9 -7
-0 -0 -0 -0 -0 -0 -0 -0 -0 -0 -0 -0 -0 -1 -1 -2 -0 -0 -0 -0 -0 -0 -0 -0 -1 -0 -0 -4 -3 -4 -11 -11 -30 -41 -19 -0 -6 -14 -18 -0 -1 -24 -7 -0 -0 -0 -9
-0 -0 -0 -0 -0 -0 -0 -0 -0 -0 -0 -0 -4 -0 -0 -0 -0 -0 -0 -0 -0 -0 -0 -0 -0 -0 -0 -9 -3 -9 -10 -8 -5 -4 -10 -8 -3 -29 -39 -12 -16 -8 -9 -25 -7 -6 -3
-0 -0 -0 -0 -0 -0 -0 -0 -0 -0 -0 -0 -0 -0 -0 -0 -0 -0 -0 -0 -0 -0 -0 -0 -0 -0 -0 -26 -37 -47 -35 -11 -8 -6 -8 -3 -5 -4 -11 -7 -9 -5 -6 -7 -6 -6 -5
-0 -2 -1 -0 -0 -0 -0 -0 -0 -0 -0 -0 -0 -0 -0 -0 -0 -0 -0 -0 -0 -0 -0 -0 -0 -0 -30 -0 -0 -0 -10 -18 -18 -4 -7 -3 -7 -4 -8 -16 -5 -2 -15 -10 -35 -6 -10
-0 -1 -1 -1 -0 -0 -0 -0 -0 -0 -0 -0 -0 -18 -0 -5 -0 -0 -0 -0 -0 -0 -0 -0 -0 -0 -0 -0 -2 -4 -3 -8 -5 -12 -18 -12 -2 -14 -5 -4 -28 -13 -3 -9 -13 -19 -63
-0 -0 -3 -2 -0 -0 -0 -0 -0 -0 -0 -0 -1 -15 -52 -0 -1 -0 -0 -0 -0 -1 -1 -0 -0 -0 -0 -1 -15 -6 -5 -43 -15 -58 -4 -6 -13 -3 -4 -4 -4 -87 -59 -2 -24 -6 -33
-0 -0 -0 -0 -0 -1 -0 -0 -0 -0 -0 -0 -0 -52 -57 -0 -0 -0 -0 -0 -0 -0 -0 -0 -0 -0 -0 -11 -4 -7 -5 -71 -103 -6 -6 -30 -4 -7 -4 -6 -15 -33 -1 -0 -3 -17 -6
-0 -0 -0 -0 -0 -0 -0 -0 -0 -0 -0 -0 -15 -0 -71 -3 -0 -0 -0 -0 -0 -0 -3 -30 -0 -29 -0 -0 -6 -6 -2 -3 -7 -7 -12 -0 -0 -11 -3 -34 -19 -15 -3 -4 -3 -1 -0
-0 -0 -0 -0 -0 -0 -0 -0 -0 -0 -0 -0 -0 -0 -0 -18 -6 -0 -0 -0 -0 -0 -0 -0 -0 -31 -0 -17 -9 -6 -1 -43 -33 -0 -6 -0 -2 -12 -62 -5 -0 -13 -16 -8 -14 -0 -2
Wind_Speed
27 28 28 28 27 26 23 22 20 19 20 20 21 21 20 19 18 16 16 19 22 23 23 23 23 23 20 11 21 12 12 3 3 14 18 5 14 23 20 21 18 15 10 7 6 16 10
28 28 28 28 28 27 25 23 22 21 21 22 22 23 21 19 18 17 18 19 21 22 22 23 23 22 15 10 18 17 9 4 4 9 5 4 18 26 19 25 17 12 6 3 4 9 12
29 29 28 28 28 27 26 24 22 21 21 22 21 21 20 20 19 19 19 20 21 21 22 22 22 21 18 15 19 15 9 8 9 17 7 22 26 25 21 21 13 11 3 2 9 11 13
30 30 28 28 27 26 26 25 22 21 21 22 22 21 21 20 20 20 21 22 21 21 20 20 20 21 19 17 18 14 11 12 14 23 26 24 25 30 26 15 14 12 6 10 8 17 17
31 30 29 29 28 27 26 25 22 21 21 21 21 21 22 23 22 22 23 22 21 18 16 16 17 17 16 14 17 14 15 14 14 18 23 20 28 30 25 27 19 16 18 16 9 20 20
32 31 31 30 29 27 25 25 22 21 21 20 20 21 22 25 23 23 22 18 15 14 13 13 19 18 18 18 11 13 13 15 16 16 19 23 25 28 31 30 28 25 27 14 15 18 19
32 32 31 30 29 27 26 25 22 20 19 19 19 21 24 25 22 20 19 15 16 14 10 20 12 18 12 12 11 15 14 15 18 22 24 24 27 31 31 31 25 10 27 7 8 7 14
33 33 32 31 29 28 27 26 24 20 18 18 18 21 22 23 18 13 13 13 20 19 15 15 15 16 15 7 14 15 14 18 22 26 30 22 36 31 24 28 25 24 10 8 9 12 11
33 32 33 31 28 27 27 26 23 19 18 19 19 21 20 17 17 12 10 14 19 19 12 15 11 13 11 15 16 15 21 24 24 28 30 30 27 32 25 27 28 23 20 14 7 18 8
31 32 31 29 27 27 25 25 21 19 19 18 18 17 10 7 14 13 12 14 15 17 12 13 10 12 12 17 17 13 21 21 24 29 27 33 28 27 25 33 26 25 9 12 5 0 13
30 29 29 27 27 26 25 20 18 18 17 15 14 6 5 11 11 12 16 14 15 14 12 15 13 12 9 17 6 16 18 21 26 26 26 29 27 27 29 30 25 16 16 5 25 14 9
30 29 27 26 24 26 23 17 15 14 14 10 3 4 10 13 13 13 9 17 13 11 13 14 11 12 13 19 16 10 18 24 23 26 27 27 25 25 30 24 23 19 19 17 17 23 25
29 28 27 25 22 24 20 16 13 10 8 3 4 9 16 14 16 15 13 14 13 6 12 13 11 7 13 13 14 14 19 23 23 24 26 28 25 27 28 21 20 21 21 26 28 30 26
29 30 27 27 24 24 19 15 11 5 1 5 7 14 16 14 13 13 13 14 12 13 18 12 14 12 14 12 15 17 18 24 29 29 23 29 28 27 24 30 22 27 27 27 26 27 25
31 29 29 29 28 25 22 12 4 2 8 10 12 18 16 16 13 14 13 10 17 14 13 13 15 12 10 14 18 20 23 24 18 27 26 25 32 18 22 27 27 22 32 26 24 21 28
31 30 30 32 32 29 25 12 6 10 13 9 15 17 20 15 15 13 11 19 16 16 14 14 14 14 15 12 17 17 19 17 17 21 24 23 24 20 22 24 30 32 22 32 32 34 27
30 31 31 32 34 32 29 13 13 17 16 10 14 16 18 14 13 11 17 19 19 17 10 17 15 13 15 16 17 19 19 18 19 17 25 24 28 18 21 28 28 28 29 29 33 34 38
30 31 32 33 34 33 31 27 20 21 18 14 11 15 16 14 12 17 19 18 16 19 17 15 10 18 17 17 22 20 17 14 21 25 22 29 25 27 25 25 28 27 28 31 31 32 33
30 32 33 33 33 32 31 28 24 22 20 12 12 17 14 13 15 17 16 18 17 17 16 16 15 14 16 18 21 21 20 18 20 21 20 20 28 29 27 17 23 29 30 28 32 30 30
31 32 33 33 33 31 31 28 25 23 20 12 12 13 15 15 16 15 15 15 15 14 17 14 14 13 12 15 14 20 20 16 18 21 21 22 27 30 25 22 22 26 33 29 32 32 30
31 32 30 31 33 31 29 28 25 23 21 12 12 14 15 15 16 17 14 14 13 15 14 13 13 13 16 15 15 17 19 18 15 14 19 23 31 29 21 24 28 25 26 28 31 34 32
30 31 30 29 31 31 29 28 26 23 21 11 12 13 12 15 14 13 16 15 15 15 14 14 10 17 15 14 15 15 20 20 18 10 22 22 28 23 34 21 25 29 23 24 26 29 32
30 28 31 29 28 30 30 28 26 23 20 11 12 11 11 13 12 11 16 16 17 17 14 12 9 8 9 15 18 21 20 21 13 18 23 23 27 28 29 28 29 32 31 27 30 29 31
29 26 29 28 24 27 29 27 25 22 20 15 13 10 11 11 11 16 15 15 15 17 18 18 15 10 16 19 9 16 22 10 14 16 20 20 26 27 31 26 32 24 19 23 24 27 25
29 28 27 26 23 21 27 26 24 22 20 18 14 9 11 11 13 12 13 15 14 13 12 18 18 17 12 10 10 9 12 7 5 11 17 15 19 21 31 32 22 21 18 22 25 25 25
28 27 25 24 20 19 23 25 24 21 21 18 13 17 18 10 10 14 13 14 15 15 11 14 15 16 11 12 8 7 10 26 14 23 15 17 12 20 20 28 37 20 22 23 24 31 21
27 27 25 21 18 17 19 23 23 21 20 18 14 16 15 8 13 14 16 17 17 15 14 15 16 12 10 8 9 7 23 20 26 12 13 21 24 17 18 21 22 14 22 25 29 24 24
30 26 25 23 18 16 17 22 23 22 20 18 14 14 14 8 13 16 14 14 12 11 16 18 15 9 10 15 16 19 21 22 24 25 20 2 22 22 20 18 26 22 21 23 21 21 22
30 29 26 22 18 15 15 19 23 22 21 19 10 12 15 13 13 14 14 14 15 16 18 15 19 16 19 16 17 20 19 22 23 27 19 25 21 20 14 18 15 17 17 20 21 22 23
Wind_Direction
353 0 4 11 20 19 27 31 36 36 34 33 26 24 22 25 23 22 12 348 323 304 294 286 283 281 281 296 277 313 295 261 147 142 151 248 261 243 261 257 273 290 312 44 104 245 239
360 2 7 11 16 18 21 30 33 34 33 27 22 18 20 26 24 19 11 353 327 308 299 290 283 280 288 290 286 288 285 241 229 146 174 204 256 238 266 245 275 300 314 19 288 240 235
1 9 14 16 17 20 22 27 31 32 32 28 28 28 25 22 19 13 2 347 328 315 301 290 282 278 282 293 284 277 272 249 243 247 245 244 238 240 252 256 288 300 306 276 274 248 249
6 10 16 21 24 25 22 23 30 34 33 30 28 28 25 21 16 7 353 334 323 316 310 297 283 275 284 279 275 264 259 251 249 240 238 245 244 234 242 268 285 275 287 256 271 241 236
9 10 13 17 22 22 23 24 30 31 30 29 30 28 23 14 5 353 342 332 327 326 326 315 299 281 286 281 260 258 252 245 246 247 244 251 236 233 243 239 253 268 263 247 264 242 235
10 9 12 15 17 23 25 24 26 29 27 29 28 25 18 6 359 352 345 348 4 0 345 336 298 287 280 261 258 252 253 247 243 248 250 246 241 238 235 234 237 248 252 246 255 246 245
12 10 11 13 17 20 24 24 25 26 28 28 27 19 10 5 1 1 357 21 7 0 357 307 323 302 293 283 259 252 250 240 243 245 241 243 240 236 235 236 261 277 180 249 304 285 266
14 10 10 12 14 16 19 20 22 27 28 25 23 14 10 8 13 29 44 37 357 334 342 335 305 293 293 280 253 247 241 243 242 240 237 245 235 240 250 251 255 268 295 271 306 270 301
16 14 13 15 19 20 17 19 24 29 27 22 19 13 15 23 20 61 101 24 318 310 15 351 323 301 293 268 257 244 238 243 242 238 238 239 248 241 249 245 251 263 262 269 291 230 275
22 16 18 21 23 20 21 20 28 30 25 23 20 20 38 186 72 62 72 38 257 312 13 8 345 313 293 263 264 250 242 247 244 239 241 241 250 242 245 240 250 252 279 268 56 135 255
21 21 18 21 22 21 22 29 33 31 28 28 29 46 116 113 96 94 13 216 221 105 52 344 345 310 291 258 264 253 246 250 245 243 243 242 247 245 243 244 249 263 275 256 147 265 273
22 21 25 24 25 22 26 34 36 35 35 37 32 132 112 95 119 164 97 256 133 88 24 354 350 312 264 258 260 263 244 250 263 246 244 254 253 249 242 251 253 265 266 271 279 270 264
24 24 24 24 27 24 31 37 40 43 44 31 221 125 106 164 72 51 188 136 109 78 28 357 337 32 280 271 266 253 244 245 246 242 244 247 254 248 245 247 251 253 250 256 258 253 262
23 22 23 22 26 25 35 41 45 51 317 257 191 123 116 147 167 135 139 147 85 44 355 20 296 291 286 286 265 251 252 245 242 244 251 244 246 243 247 246 250 249 254 250 254 255 266
19 23 21 19 18 24 30 47 55 276 273 254 144 105 109 96 130 129 147 142 31 55 51 55 100 290 308 286 273 252 248 245 253 245 255 249 249 248 254 250 250 255 249 260 261 281 270
19 20 20 12 9 15 23 49 272 277 280 218 115 95 57 106 125 144 153 35 57 39 58 107 342 298 289 288 270 265 251 258 265 252 266 264 243 250 256 257 253 254 266 249 251 251 262
20 16 15 10 357 5 10 45 283 291 280 150 109 84 57 131 139 148 64 52 72 67 176 264 319 321 299 288 281 270 273 270 268 273 258 261 251 261 257 248 250 250 255 258 260 254 257
17 16 11 6 350 353 357 328 301 304 288 98 124 73 78 139 104 93 64 60 121 80 102 85 18 303 296 296 270 276 281 285 276 262 260 254 266 253 256 259 252 254 255 256 255 255 261
15 10 0 2 349 343 346 329 314 309 314 114 100 61 114 133 75 66 84 70 100 97 92 73 57 340 324 303 282 278 281 293 283 265 270 271 251 254 257 259 261 258 256 256 257 262 261
14 7 359 356 347 333 338 326 315 307 302 83 100 88 64 74 66 83 85 66 69 117 87 100 74 107 32 330 323 291 288 293 283 272 277 268 256 254 267 269 282 255 252 256 254 257 257
11 5 6 360 348 331 327 325 314 304 301 66 118 48 36 52 54 34 58 57 56 43 88 106 89 59 9 345 335 318 300 292 292 286 276 262 254 264 279 270 267 278 256 252 253 255 258
8 3 2 2 355 336 325 329 316 305 292 82 66 58 75 38 44 68 49 37 25 10 31 44 78 5 358 353 352 326 301 287 289 291 267 270 261 275 257 274 271 263 265 266 259 257 259
2 7 355 359 360 347 332 335 321 311 305 44 17 37 106 40 63 60 18 13 4 348 21 41 61 77 107 349 307 278 279 285 311 283 270 269 263 262 263 268 271 259 261 267 262 264 263
357 4 356 356 7 357 338 338 325 314 322 323 348 349 118 64 48 6 1 11 11 352 345 1 37 85 347 312 105 213 238 348 310 288 277 280 266 266 264 275 259 276 279 278 268 266 275
351 355 355 356 5 11 345 333 326 305 303 295 326 14 128 64 11 24 12 2 22 30 24 3 17 346 24 79 135 17 322 358 71 315 287 293 281 280 265 262 268 277 290 275 267 269 279
346 349 354 354 5 9 356 340 322 296 295 294 328 286 282 39 41 352 9 2 352 352 32 38 35 27 82 148 94 56 149 238 310 272 291 282 300 283 285 270 259 268 289 298 281 260 284
344 343 345 353 4 4 4 344 318 294 288 299 320 299 296 128 354 337 329 326 340 344 344 7 2 16 52 135 19 20 289 305 248 314 300 280 272 284 288 278 283 293 278 283 265 269 289
330 337 338 339 350 355 357 336 314 291 284 303 317 306 302 5 354 314 333 349 29 24 346 347 355 27 14 345 335 323 305 305 290 280 293 293 222 278 282 284 271 305 279 281 295 295 296
324 324 327 331 341 346 352 334 306 289 284 292 353 327 304 326 344 319 340 3 1 348 342 352 334 345 336 340 334 317 314 299 293 273 310 284 296 296 298 292 306 323 309 306 301 296 294